Racecast

Moonlight Lane

Difficulty:i +1.5% (5000m, the usual distance here) · 195 results · 195 athletes

All 5000m
Rating scale ?

Distances raced here

DistanceDifficultyiResults FirstLast
5000m +1.5% 195 2025-10-25 2025-10-25

Best speed ratings all distances

Boys

#AthleteRatingi TimeDistSchoolDate
1 Gavin Esterholm 122.8 16:48.9 5000m Phillips (WI) 2025-10-25
2 Tommy Dettinger 122.1 16:54.9 5000m Cumberland (RI) 2025-10-25
3 Tanner Morley 119.9 17:13.3 5000m Frederic (WI) 2025-10-25
4 Zane Mattson 119.3 17:19 5000m Frederic (WI) 2025-10-25
5 Josh Hartke 118.3 17:27.2 5000m Grantsburg (WI) 2025-10-25
6 Ben Giesregen 118.1 17:29 5000m Drummond (WI) 2025-10-25
7 Truman Smith 115.9 17:49.1 5000m Prentice/Rib Lake (WI) 2025-10-25
8 Henry Regier 115.6 17:52 5000m Prentice/Rib Lake (WI) 2025-10-25
9 Kaleb Scott 115.2 17:55.6 5000m Prentice/Rib Lake (WI) 2025-10-25
10 Wyatt Chartrand 114.7 18:00.1 5000m Frederic (WI) 2025-10-25
11 Finn McCardle 114.1 18:05.7 5000m Phillips (WI) 2025-10-25
12 Nick Pesko 114.0 18:06.6 5000m Phillips (WI) 2025-10-25
13 Evan Johnson 113.3 18:14.1 5000m Phillips (WI) 2025-10-25
14 Sawyer Peck 112.8 18:18.2 5000m Hurley (WI) 2025-10-25
15 Jackson Schutt 112.6 18:20.6 5000m Prentice/Rib Lake (WI) 2025-10-25
16 Heston Hueckman 112.2 18:24 5000m Prentice/Rib Lake (WI) 2025-10-25
17 Noah Hartke 112.0 18:26.3 5000m Grantsburg (WI) 2025-10-25
18 Seamus Highfill 111.5 18:31.3 5000m Prentice/Rib Lake (WI) 2025-10-25
19 Logan Sokolowski 111.0 18:36.7 5000m Phillips (WI) 2025-10-25
20 Matthew Hirtreiter 110.7 18:39.2 5000m Chequamegon (WI) 2025-10-25
21 Spencer Henney 110.6 18:40.6 5000m Phillips (WI) 2025-10-25
22 Brenden Aukee 110.3 18:43.8 5000m Hurley (WI) 2025-10-25
23 Owen Stibak 109.2 18:54.8 5000m Ladysmith (WI) 2025-10-25
24 Wyatt Hoefs 108.7 18:59.9 5000m Grantsburg (WI) 2025-10-25
25 Dylan Christel 108.2 19:05.6 5000m Shell Lake (WI) 2025-10-25
26 Jeremy Wiitala 107.8 19:09.9 5000m Prentice/Rib Lake (WI) 2025-10-25
27 Cooper Michalski 107.7 19:10.9 5000m Chequamegon (WI) 2025-10-25
28 Jarrett Heckendorf 107.7 19:11 5000m Chequamegon (WI) 2025-10-25
29 Jayden Eagleman 107.3 19:15.3 5000m Cumberland (RI) 2025-10-25
30 Josh Edwards 107.0 19:18 5000m Phillips (WI) 2025-10-25
31 Ben Dettinger 106.7 19:21.5 5000m Cumberland (RI) 2025-10-25
32 Alberto Perez 106.0 19:28.6 5000m Drummond (WI) 2025-10-25
33 Callahan Hanson 106.0 19:29.6 5000m Frederic (WI) 2025-10-25
34 Hunter Schroeder 105.9 19:30 5000m Grantsburg (WI) 2025-10-25
35 Jett Jensen 105.4 19:35.5 5000m Grantsburg (WI) 2025-10-25
36 Connor Ptacek 105.2 19:38.5 5000m Bruce (WI) 2025-10-25
37 Jordi Poch 105.2 19:38.5 5000m Drummond (WI) 2025-10-25
38 Leo Carlson 105.0 19:40.7 5000m Grantsburg (WI) 2025-10-25
39 Rory Krueger 104.6 19:44.3 5000m Drummond (WI) 2025-10-25
40 Bently Jorgensen 104.2 19:49.6 5000m Chequamegon (WI) 2025-10-25
41 Kaden White 103.7 19:54.8 5000m Ladysmith (WI) 2025-10-25
42 Jamison Mogen 103.4 19:58.5 5000m Webster (WI) 2025-10-25
43 Abel Wetzig 103.3 19:59.1 5000m Frederic (WI) 2025-10-25
44 Seth Meyers 103.3 19:59.8 5000m Ladysmith (WI) 2025-10-25
45 Manny Milam 103.3 20:00.1 5000m Drummond (WI) 2025-10-25
46 Nolan Posewitz 103.2 20:00.3 5000m Ladysmith (WI) 2025-10-25
47 Jaxon Finch 103.2 20:00.5 5000m Grantsburg (WI) 2025-10-25
48 Preston Mika 101.8 20:16.8 5000m Drummond (WI) 2025-10-25
49 Everett Luedtke 101.8 20:17.4 5000m Webster (WI) 2025-10-25
50 Joe Morris 101.3 20:22.8 5000m Webster (WI) 2025-10-25
51 Josh Formanek 101.3 20:22.9 5000m Webster (WI) 2025-10-25
52 Will Malmin 101.2 20:24.9 5000m Shell Lake (WI) 2025-10-25
53 Spencer Palmer 101.1 20:25.3 5000m Shell Lake (WI) 2025-10-25
54 Tristan Scully 100.8 20:29.8 5000m Drummond (WI) 2025-10-25
55 Ben Stouffer 100.7 20:30.1 5000m Shell Lake (WI) 2025-10-25
56 Lionel Vang 100.6 20:32 5000m Bayfield (CO) 2025-10-25
57 Ethan Humphrey 100.5 20:33.5 5000m Chequamegon (WI) 2025-10-25
58 Zachery Roberts 99.5 20:45.9 5000m Chequamegon (WI) 2025-10-25
59 Drake Rademaker 99.5 20:46 5000m Birchwood (WI) 2025-10-25
60 Carl Morse 99.1 20:50.4 5000m Siren (WI) 2025-10-25

View all →

Girls

#AthleteRatingi TimeDistSchoolDate
1 Leah Harper 125.3 19:50.3 5000m Phillips (WI) 2025-10-25
2 Aurora Olson 123.2 20:09.7 5000m Washburn (KS) 2025-10-25
3 Penelope Burfield 120.4 20:38.8 5000m Solon Springs (WI) 2025-10-25
4 Alyssa Fossum 118.6 20:56.9 5000m Solon Springs (WI) 2025-10-25
5 Hailey Bodoh 117.6 21:07.4 5000m Chequamegon (WI) 2025-10-25
6 Kylie Orysen 117.5 21:09.4 5000m Prentice/Rib Lake (WI) 2025-10-25
7 Lola Morley 116.5 21:19.4 5000m Frederic (WI) 2025-10-25
8 Lyla Gago 116.0 21:25.8 5000m Ladysmith (WI) 2025-10-25
9 Tana Henderson 115.0 21:36.3 5000m Phillips (WI) 2025-10-25
10 Ruby Mccormick 114.2 21:45.1 5000m Phillips (WI) 2025-10-25
11 Hannah Sunday 113.1 21:58.5 5000m Bruce (WI) 2025-10-25
12 Ella Orysen 112.9 22:00.4 5000m Prentice/Rib Lake (WI) 2025-10-25
13 Lyla Rahmer 112.3 22:07.6 5000m Phillips (WI) 2025-10-25
14 Nola Tulowitzky 111.5 22:16.6 5000m Washburn (KS) 2025-10-25
15 Jovina Skinner 111.5 22:17.5 5000m Cumberland (RI) 2025-10-25
16 Greta Hart 111.5 22:17.4 5000m Washburn (KS) 2025-10-25
17 Addie Gabay 111.4 22:18.7 5000m Phillips (WI) 2025-10-25
18 Mady Ernst 110.5 22:29.2 5000m Chequamegon (WI) 2025-10-25
19 Annika Guttormson 110.1 22:33.7 5000m Solon Springs (WI) 2025-10-25
20 Trinity Smith 109.5 22:42.2 5000m Phillips (WI) 2025-10-25
21 Mallory Smith 108.9 22:48.7 5000m Chequamegon (WI) 2025-10-25
22 Adison Bablick 108.8 22:50.3 5000m Chequamegon (WI) 2025-10-25
23 Ella Grzanna 108.1 22:59.4 5000m Prentice/Rib Lake (WI) 2025-10-25
24 Marika Gago 107.7 23:05 5000m Ladysmith (WI) 2025-10-25
25 Linnaea Shackleford 107.5 23:06.8 5000m Washburn (KS) 2025-10-25
26 Brielle Winter 107.3 23:09.2 5000m Webster (WI) 2025-10-25
27 Hattie Antonich 107.0 23:13.1 5000m Grantsburg (WI) 2025-10-25
28 Autumn Lawton 107.0 23:13.4 5000m Flambeau (WI) 2025-10-25
29 Elly Anderson 106.7 23:16.8 5000m Grantsburg (WI) 2025-10-25
30 Caitlynn Bebeau 105.7 23:31 5000m Butternut (WI) 2025-10-25
31 Bella King 104.7 23:44.5 5000m Frederic (WI) 2025-10-25
32 Cadence Colby 103.6 23:59.1 5000m Washburn (KS) 2025-10-25
33 Valencia Burfield 102.5 24:14.2 5000m Solon Springs (WI) 2025-10-25
34 Savana Budisalavich 102.5 24:15.1 5000m Solon Springs (WI) 2025-10-25
35 Kacey Rombach 102.4 24:15.7 5000m Grantsburg (WI) 2025-10-25
36 Jessie Chard 102.4 24:16.2 5000m Washburn (KS) 2025-10-25
37 Vanessa Schmidt 101.6 24:27.2 5000m Chequamegon (WI) 2025-10-25
38 Lucy Schloneger 101.3 24:31.3 5000m Shell Lake (WI) 2025-10-25
39 Mya Gago 101.2 24:33.2 5000m Ladysmith (WI) 2025-10-25
40 Payson Mara 101.0 24:36.1 5000m Frederic (WI) 2025-10-25
41 Hanna Rightman 100.5 24:43.8 5000m Siren (WI) 2025-10-25
42 Kimberly Schweigert 99.5 24:58.8 5000m Bruce (WI) 2025-10-25
43 Adrianna Stewart 99.5 24:59.3 5000m Ladysmith (WI) 2025-10-25
44 Allison Wilson 99.3 25:01.2 5000m Webster (WI) 2025-10-25
45 Violet Small 99.2 25:03.2 5000m Cumberland (RI) 2025-10-25
46 Allison Howey 98.9 25:07.4 5000m Hurley (WI) 2025-10-25
47 Anna Scott 97.5 25:29.1 5000m Prentice/Rib Lake (WI) 2025-10-25
48 MaKenzie Humphrey 97.1 25:35.6 5000m Chequamegon (WI) 2025-10-25
49 Levke Wacker 95.7 25:57.5 5000m Cumberland (RI) 2025-10-25
50 Cindy Sommers-Petroski 95.6 28:21.9 5000m Chequamegon (WI) 2025-10-25
51 Ava Shimko 95.4 26:02.5 5000m Bruce (WI) 2025-10-25
52 Lizzy Treague 95.4 26:03.2 5000m Webster (WI) 2025-10-25
53 Donna Plaster 94.9 26:11.4 5000m Siren (WI) 2025-10-25
54 Gloria Vross 93.9 26:28.1 5000m Washburn (KS) 2025-10-25
55 Fiona Huggard 93.8 26:30.3 5000m Phillips (WI) 2025-10-25
56 Greta Weaver 93.5 26:35.3 5000m Cumberland (RI) 2025-10-25
57 Elle Treague 93.3 26:37.3 5000m Webster (WI) 2025-10-25
58 Jordyn Kutyba 93.0 26:43 5000m Drummond (WI) 2025-10-25
59 Hadessah Jowers 92.1 26:59.6 5000m Webster (WI) 2025-10-25
60 Jasmine Delgado 92.0 26:59.7 5000m Cumberland (RI) 2025-10-25

View all →

Best team performances by rating top-5 average rating, one race, all distances

Boys

#SchoolTop-5 avg DistMeetDate
1 Phillips (WI) 115.1 5000m WIAA D3 Sectional 1 - Phillips 2025-10-25
2 Prentice/Rib Lake (WI) 114.3 5000m WIAA D3 Sectional 1 - Phillips 2025-10-25
3 Frederic (WI) 112.6 5000m WIAA D3 Sectional 1 - Phillips 2025-10-25
4 Grantsburg (WI) 110.1 5000m WIAA D3 Sectional 1 - Phillips 2025-10-25
5 Drummond (WI) 107.5 5000m WIAA D3 Sectional 1 - Phillips 2025-10-25
6 Chequamegon (WI) 106.1 5000m WIAA D3 Sectional 1 - Phillips 2025-10-25
7 Cumberland (RI) 106.0 5000m WIAA D3 Sectional 1 - Phillips 2025-10-25
8 Hurley (WI) 101.4 5000m WIAA D3 Sectional 1 - Phillips 2025-10-25
9 Shell Lake (WI) 101.2 5000m WIAA D3 Sectional 1 - Phillips 2025-10-25
10 Ladysmith (WI) 101.0 5000m WIAA D3 Sectional 1 - Phillips 2025-10-25
11 Webster (WI) 99.9 5000m WIAA D3 Sectional 1 - Phillips 2025-10-25
12 Birchwood (WI) 94.0 5000m WIAA D3 Sectional 1 - Phillips 2025-10-25
13 Bayfield (CO) 93.0 5000m WIAA D3 Sectional 1 - Phillips 2025-10-25
14 Washburn (KS) 88.2 5000m WIAA D3 Sectional 1 - Phillips 2025-10-25
15 Lac Courte Oreilles (WI) 86.5 5000m WIAA D3 Sectional 1 - Phillips 2025-10-25

View all →

Girls

#SchoolTop-5 avg DistMeetDate
1 Phillips (WI) 115.6 5000m WIAA D3 Sectional 1 - Phillips 2025-10-25
2 Washburn (KS) 111.5 5000m WIAA D3 Sectional 1 - Phillips 2025-10-25
3 Solon Springs (WI) 110.8 5000m WIAA D3 Sectional 1 - Phillips 2025-10-25
4 Chequamegon (WI) 109.5 5000m WIAA D3 Sectional 1 - Phillips 2025-10-25
5 Prentice/Rib Lake (WI) 105.3 5000m WIAA D3 Sectional 1 - Phillips 2025-10-25
6 Frederic (WI) 100.3 5000m WIAA D3 Sectional 1 - Phillips 2025-10-25
7 Cumberland (RI) 98.4 5000m WIAA D3 Sectional 1 - Phillips 2025-10-25
8 Webster (WI) 97.5 5000m WIAA D3 Sectional 1 - Phillips 2025-10-25
9 Shell Lake (WI) 87.6 5000m WIAA D3 Sectional 1 - Phillips 2025-10-25
10 Siren (WI) 87.5 5000m WIAA D3 Sectional 1 - Phillips 2025-10-25

View all →

Meets held here all distances

MeetLast heldDistanceResults
WIAA D3 Sectional 1 - Phillips 2025-10-25 5000 195

View all →